Date,TemperatureHighF,TemperatureAvgF,TemperatureLowF,DewpointHighF,DewpointAvgF,DewpointLowF,HumidityHigh,HumidityAvg,HumidityLow,PressureMaxIn,PressureMinIn,WindSpeedMaxMPH,WindSpeedAvgMPH,GustSpeedMaxMPH,PrecipitationSumIn
2013-1-1,45.9,39.6,34.0,40.4,34.7,31.0,90,83,66,30.51,30.33,1,0,1,0.02
2013-1-2,49.6,42.0,37.6,36.8,33.1,30.0,77,71,60,30.35,30.22,1,0,1,0.05
2013-1-3,49.3,44.9,38.3,47.3,35.9,29.0,93,72,55,30.37,30.14,6,0,6,0.02
2013-1-4,49.8,47.1,43.3,47.8,45.1,41.2,94,93,92,30.44,30.25,4,0,4,0.08
2013-1-5,49.1,45.9,44.2,44.2,42.8,41.4,92,89,83,30.31,30.20,1,0,1,0.04
2013-1-6,48.6,44.8,40.3,46.9,42.9,38.4,95,93,91,30.34,30.19,5,0,5,0.04
2013-1-7,50.7,49.2,46.2,49.6,48.0,44.9,96,95,95,30.37,30.14,8,1,8,0.04
2013-1-8,51.1,49.9,47.8,49.9,48.7,46.5,96,96,95,30.35,30.05,10,1,10,0.02
2013-1-9,49.3,44.2,38.3,47.8,41.6,35.8,96,91,84,30.12,29.88,8,1,8,0.04
2013-1-10,43.2,39.7,36.0,41.0,37.4,33.8,94,92,82,30.28,30.11,4,0,4,0.02
2013-1-11,43.3,38.5,34.2,39.0,35.1,30.3,92,88,82,30.43,30.25,1,0,1,0.06
2013-1-12,43.0,36.2,31.8,36.6,31.4,28.4,87,83,77,30.52,30.40,1,0,1,0.06
2013-1-13,39.4,33.7,30.6,33.2,29.6,27.2,88,85,78,30.59,30.51,0,0,0,0.02
2013-1-14,42.1,36.6,31.3,37.5,32.6,27.6,91,85,80,30.67,30.59,0,0,0,0.04
2013-1-15,45.1,40.5,35.2,42.8,38.1,32.5,93,91,89,30.77,30.66,0,0,0,0.07
2013-1-16,46.0,37.2,32.7,41.8,34.3,30.4,92,89,85,30.74,30.53,1,0,1,0.02
2013-1-17,49.3,39.3,33.4,44.3,35.2,29.9,88,85,81,30.53,30.35,0,0,0,0.04
2013-1-18,51.4,41.7,36.5,43.8,36.6,32.1,87,82,74,30.37,30.30,1,0,1,0.00
2013-1-19,46.8,40.7,35.2,43.1,36.9,31.3,90,86,83,30.43,30.33,2,0,2,0.00
2013-1-20,47.5,38.4,32.5,43.0,35.3,30.2,91,88,83,30.43,30.31,0,0,0,0.02
2013-1-21,49.3,40.0,33.6,42.1,34.4,28.9,84,81,73,30.34,30.17,1,0,1,0.02
2013-1-22,57.0,47.8,39.4,39.5,35.8,31.7,75,64,47,30.21,30.01,1,0,1,0.04
2013-1-23,47.1,45.3,42.6,44.7,40.4,35.8,92,83,69,30.31,29.97,2,0,2,0.04
2013-1-24,49.3,44.4,37.9,45.8,41.9,35.5,94,91,86,30.32,30.19,2,0,2,0.04
2013-1-25,49.3,46.7,43.0,47.9,45.2,41.3,95,94,93,30.25,30.07,3,0,3,0.06
2013-1-26,45.7,43.0,40.1,43.8,41.2,38.2,94,93,92,30.24,30.06,7,0,7,0.02
2013-1-27,44.8,41.9,38.5,43.0,40.2,36.6,94,94,93,30.30,30.19,4,0,4,0.04
2013-1-28,46.6,45.3,44.2,44.7,43.2,41.7,93,92,88,30.43,30.25,6,0,6,0.02
2013-1-29,47.7,46.1,45.1,45.9,44.4,43.3,95,94,93,30.65,30.42,4,0,4,0.06
2013-1-30,49.3,47.8,46.0,47.9,46.4,44.1,95,95,93,30.65,30.59,3,0,3,0.02
2013-1-31,50.2,46.5,42.4,48.7,45.0,41.1,95,95,93,30.61,30.47,1,0,1,0.03
2013-2-1,51.4,46.5,42.4,48.8,44.5,40.0,95,93,90,30.48,30.35,1,0,1,0.04
2013-2-2,55.8,46.1,38.5,49.4,42.9,36.6,93,89,75,30.46,30.32,4,0,4,0.02
2013-2-3,49.3,47.4,45.7,46.5,44.9,43.5,92,91,89,30.46,30.35,0,0,0,0.04
2013-2-4,50.2,46.5,43.0,47.0,43.8,41.0,93,90,86,30.37,30.09,6,0,6,0.06
2013-2-5,49.6,47.3,45.5,47.6,45.1,43.1,95,92,87,30.19,30.04,6,1,6,0.04
2013-2-6,48.7,46.0,41.9,46.5,43.5,39.6,94,91,87,30.22,29.96,6,0,6,0.06
2013-2-7,45.3,41.7,36.7,43.2,39.5,34.3,93,92,91,30.28,30.06,2,0,2,0.02
2013-2-8,46.4,39.5,33.6,43.3,36.8,31.5,93,90,84,30.42,30.27,2,0,2,0.04
2013-2-9,47.1,43.2,38.3,45.2,41.0,35.6,94,92,90,30.44,30.40,1,0,1,0.04
2013-2-10,49.3,45.7,43.5,46.2,43.3,41.7,94,91,85,30.48,30.42,1,0,1,0.04
2013-2-11,48.7,45.5,42.4,45.0,42.8,40.0,93,90,86,30.55,30.45,2,0,2,0.04
2013-2-12,50.5,48.3,45.7,48.8,46.6,43.8,95,94,93,30.65,30.54,2,0,2,0.08
2013-2-13,49.8,47.7,45.3,47.9,46.1,43.4,95,94,91,30.66,30.58,1,0,1,0.07
2013-2-14,51.4,46.6,41.5,48.9,44.6,39.9,95,93,89,30.70,30.58,1,0,1,0.06
2013-2-15,52.3,45.4,39.4,49.5,43.2,37.5,95,92,89,30.59,30.33,1,0,1,0.06
2013-2-16,51.6,47.8,43.5,48.8,45.0,40.5,93,90,85,30.49,30.40,2,0,2,0.06
2013-2-17,49.6,43.4,39.9,44.0,40.0,36.6,93,88,78,30.48,30.25,1,0,1,0.06
2013-2-18,46.6,41.7,37.4,43.6,38.9,34.9,93,90,86,30.25,29.83,4,0,4,0.04
2013-2-19,48.6,42.5,39.6,44.8,40.1,36.9,94,91,82,30.15,29.75,1,0,1,0.04
2013-2-20,46.8,40.8,34.9,44.1,38.5,32.7,93,91,87,30.25,30.15,6,0,6,0.02
2013-2-21,46.0,44.1,41.5,44.4,41.9,39.1,94,92,90,30.36,30.25,10,0,10,0.04
2013-2-22,48.7,45.8,41.9,47.4,43.9,38.9,95,93,86,30.33,30.07,12,1,12,0.06
2013-2-23,48.6,44.1,40.6,41.6,39.4,37.4,90,84,75,30.58,30.25,5,0,5,0.13
2013-2-24,49.8,44.7,40.3,43.9,40.4,37.6,92,85,75,30.58,30.19,5,0,5,0.55
2013-2-25,48.2,45.0,40.3,45.0,40.8,36.4,93,85,78,30.53,30.17,8,0,8,0.24
2013-2-26,50.5,43.7,39.6,42.4,38.6,36.4,89,82,72,30.52,30.36,2,0,2,0.02
2013-2-27,49.8,47.0,43.7,47.2,44.3,39.3,94,90,82,30.42,30.31,7,0,7,0.10
2013-2-28,51.1,50.1,49.3,49.6,48.8,47.6,96,95,94,30.59,30.31,7,1,7,0.17
2013-3-1,54.5,50.6,45.3,52.4,49.0,43.4,96,94,91,30.60,30.45,4,0,4,0.55
2013-3-2,52.5,47.3,43.0,50.8,45.6,41.1,95,94,93,30.47,30.35,2,0,2,0.06
2013-3-3,49.8,42.3,37.2,44.1,39.3,34.2,94,89,79,30.46,30.34,1,0,1,0.02
2013-3-4,52.5,41.9,33.6,46.4,37.9,30.9,92,86,76,30.34,29.99,7,0,7,0.00
2013-3-5,45.7,43.8,42.4,43.8,41.2,37.8,94,90,77,30.00,29.72,1,0,1,0.51
2013-3-6,48.7,44.9,43.0,45.8,42.9,40.8,94,92,88,30.08,29.67,6,0,6,0.24
2013-3-7,52.5,44.1,38.8,46.0,40.7,35.9,93,88,77,30.17,30.07,2,0,2,0.07
2013-3-8,49.1,42.3,34.5,45.4,39.5,32.1,93,90,86,30.35,30.14,1,0,1,0.00
2013-3-9,52.3,43.6,37.4,46.4,40.4,35.1,93,88,79,30.64,30.35,1,0,1,0.00
2013-3-10,49.8,44.2,37.2,46.3,41.5,34.5,93,90,84,30.63,30.55,0,0,0,0.02
2013-3-11,52.3,48.9,46.2,50.0,46.8,44.3,94,93,91,30.56,30.37,2,0,2,0.00
2013-3-12,56.5,50.0,47.1,52.3,47.4,44.9,95,91,83,30.38,30.32,3,0,3,0.00
2013-3-13,53.8,49.1,46.0,50.9,46.4,44.1,93,90,85,30.38,30.25,2,0,2,0.00
2013-3-14,52.9,49.1,47.3,48.5,46.5,45.1,94,91,82,30.36,30.21,6,0,6,0.12
2013-3-15,55.2,50.8,48.7,53.8,49.0,46.5,95,94,91,30.42,30.34,2,0,2,0.02
2013-3-16,50.0,47.8,44.2,47.7,45.3,39.1,93,91,82,30.40,30.23,5,0,5,0.28
2013-3-17,52.9,45.2,40.8,45.0,39.7,37.5,89,81,72,30.49,30.35,2,0,2,0.11
2013-3-18,51.3,42.8,36.7,45.4,39.4,34.3,93,88,77,30.43,30.22,2,0,2,0.00
2013-3-19,50.7,45.7,39.0,48.7,42.0,36.0,95,87,79,30.22,29.77,6,0,6,0.65
2013-3-20,50.7,47.7,43.0,49.0,43.9,37.1,95,87,74,30.34,29.67,16,2,16,0.20
2013-3-21,49.8,44.4,41.9,42.5,39.0,36.9,87,81,74,30.49,30.34,7,1,7,0.06
2013-3-22,48.6,41.7,37.2,42.1,37.5,33.9,91,85,77,30.53,30.46,2,0,2,0.15
2013-3-23,51.1,41.6,35.4,41.4,36.2,32.7,90,82,65,30.53,30.39,1,0,1,0.00
2013-3-24,52.5,44.6,39.0,44.0,39.0,35.5,87,81,70,30.40,30.22,1,0,1,0.00
2013-3-25,51.6,45.2,39.9,45.3,40.7,36.3,89,84,77,30.22,30.08,2,0,2,0.00
2013-3-26,51.6,46.6,41.2,48.4,43.9,37.6,93,91,87,30.16,30.08,3,0,3,0.02
2013-3-27,55.2,49.1,43.2,50.7,46.3,40.8,94,90,84,30.13,30.03,4,0,4,0.00
2013-3-28,58.5,51.6,45.5,53.0,48.4,43.3,93,89,81,30.31,30.12,1,0,1,0.00
2013-3-29,62.4,52.5,48.7,55.1,48.7,45.7,91,87,76,30.37,30.30,7,0,7,0.00
2013-3-30,65.3,53.1,43.2,54.7,47.8,41.0,94,83,66,30.32,30.09,7,0,7,0.00
2013-3-31,64.6,54.2,48.4,54.9,49.5,45.8,92,84,69,30.19,30.10,7,1,7,0.00
2013-4-1,54.3,51.8,49.8,51.4,49.3,47.5,93,91,87,30.35,30.18,3,0,3,0.00
2013-4-2,54.9,50.9,48.4,51.1,48.1,46.3,94,90,85,30.38,30.31,3,0,3,0.02
2013-4-3,57.7,51.0,46.2,52.1,47.6,43.8,92,88,80,30.32,30.04,2,0,2,0.00
2013-4-4,54.3,51.8,50.4,52.6,49.9,48.0,95,93,90,30.05,29.81,10,1,10,0.41
2013-4-5,52.3,51.1,50.4,50.6,49.5,48.9,95,95,93,30.10,29.94,15,2,15,0.47
2013-4-6,53.2,50.0,46.8,50.8,48.1,44.9,95,93,90,30.16,29.79,10,1,10,0.53
2013-4-7,50.7,47.8,44.8,49.4,45.3,41.6,96,91,84,30.13,29.73,20,2,20,0.18
2013-4-8,54.3,47.8,43.0,47.3,43.5,39.4,92,85,74,30.45,30.12,1,0,1,0.04
2013-4-9,55.2,48.4,42.8,49.3,44.4,39.7,91,86,80,30.48,30.38,1,0,1,0.00
2013-4-10,54.0,50.2,47.3,50.9,47.4,43.5,95,90,83,30.49,30.31,6,0,6,0.14
2013-4-11,57.4,48.4,41.9,49.1,44.2,39.4,93,86,73,30.51,30.31,2,0,2,0.06
2013-4-12,54.1,46.5,38.8,47.4,42.5,35.9,91,86,76,30.33,30.08,8,0,8,0.08
2013-4-13,52.2,46.5,42.4,44.5,41.2,38.1,89,82,72,30.30,30.16,5,0,5,0.19
2013-4-14,52.0,45.1,41.5,46.6,41.4,38.5,92,87,78,30.25,30.10,2,0,2,0.16
2013-4-15,56.5,45.9,40.3,47.7,41.3,37.6,92,84,68,30.34,30.10,2,0,2,0.19
2013-4-16,60.6,49.2,43.2,49.1,43.6,38.8,91,82,64,30.55,30.33,2,0,2,0.00
2013-4-17,61.2,48.8,41.2,49.9,43.4,37.6,90,82,65,30.66,30.55,8,0,8,0.00
2013-4-18,56.8,50.5,44.2,47.9,44.9,40.0,90,81,71,30.64,30.50,3,0,3,0.00
2013-4-19,52.7,50.4,48.7,51.0,48.3,47.0,94,93,90,30.50,30.34,6,0,6,0.65
2013-4-20,59.0,50.7,47.7,51.3,46.8,43.7,94,87,74,30.51,30.45,3,0,3,0.00
2013-4-21,56.8,50.2,46.2,50.7,46.3,43.5,91,86,79,30.46,30.42,4,0,4,0.00
2013-4-22,66.0,50.1,39.4,50.2,43.6,36.7,91,79,49,30.52,30.45,4,0,4,0.00
2013-4-23,61.5,48.7,38.8,49.7,43.1,35.3,89,81,64,30.49,30.33,4,0,4,0.00
2013-4-24,67.1,51.8,39.2,49.4,42.9,36.0,90,73,53,30.35,30.17,6,0,6,0.00
2013-4-25,59.4,50.6,43.5,51.8,45.5,39.3,89,83,75,30.33,30.16,5,0,5,0.00
2013-4-26,59.2,50.5,46.0,52.3,46.5,42.1,91,86,76,30.41,30.31,2,0,2,0.00
2013-4-27,55.9,49.5,43.2,49.5,45.2,39.5,91,85,77,30.47,30.38,6,0,6,0.00
2013-4-28,62.8,53.4,50.0,54.9,49.3,46.5,93,86,74,30.45,30.30,6,0,6,0.18
2013-4-29,59.4,51.0,44.2,49.3,44.7,38.8,93,80,58,30.40,30.28,4,0,4,0.04
2013-4-30,60.1,48.0,43.0,46.1,40.6,36.6,87,76,58,30.60,30.39,4,0,4,0.02
2013-5-1,61.7,47.8,37.2,50.6,41.3,33.0,86,78,65,30.63,30.55,4,0,4,0.00
2013-5-2,63.0,50.9,41.2,52.0,44.2,37.9,89,78,66,30.55,30.44,3,0,3,0.00
2013-5-3,65.5,51.9,43.0,53.4,46.0,39.4,88,81,64,30.47,30.30,3,0,3,0.00
2013-5-4,84.7,56.9,44.2,54.0,46.3,40.5,90,72,30,30.30,30.13,3,0,3,0.00
2013-6-7,57.0,55.9,54.3,52.3,51.3,49.9,85,85,84,30.36,30.32,4,0,4,0.00
2013-6-8,67.1,55.5,48.4,55.5,49.6,44.9,90,81,64,30.35,30.27,3,0,3,0.02
2013-6-9,67.8,55.5,51.1,55.8,49.2,46.3,87,80,63,30.32,30.21,3,0,3,0.00
2013-6-10,68.2,55.0,46.6,54.7,47.9,41.9,86,77,62,30.21,30.13,3,0,3,0.00
2013-6-11,64.6,55.7,50.4,55.4,49.9,46.0,88,81,70,30.35,30.17,4,1,4,0.08
2013-6-12,64.2,55.1,49.3,55.2,49.7,45.1,91,82,71,30.39,30.28,3,0,3,0.07
2013-6-13,65.8,56.9,52.3,58.1,52.2,48.8,91,85,73,30.48,30.31,3,0,3,0.42
2013-6-14,72.7,59.1,53.2,58.7,53.1,48.5,91,81,61,30.47,30.15,3,0,3,0.00
2013-6-15,64.0,56.8,49.6,57.7,52.2,46.5,90,85,78,30.23,30.08,4,0,4,0.00
2013-6-16,68.2,59.5,55.0,57.7,53.4,51.0,87,80,68,30.32,30.22,4,0,4,0.00
2013-6-17,62.8,57.3,52.9,55.4,52.5,48.8,90,84,72,30.30,30.18,6,1,6,0.05
2013-6-18,61.0,56.2,53.2,56.1,52.5,50.4,91,88,80,30.19,30.12,10,0,10,0.38
2013-6-19,64.9,56.6,52.5,58.3,52.8,50.2,93,87,77,30.28,30.10,5,1,5,0.33
2013-6-20,71.2,59.0,52.9,59.7,53.7,49.9,92,83,66,30.33,30.22,3,0,3,0.12
2013-6-21,73.9,59.6,51.6,59.4,53.2,48.4,90,80,59,30.35,30.29,2,0,2,0.00
2013-6-22,75.4,60.1,50.2,62.0,54.0,46.9,91,81,62,30.29,30.04,3,0,3,0.04
2013-6-23,68.7,61.0,56.8,63.5,57.9,53.2,93,90,81,30.05,29.82,5,0,5,0.29
2013-6-24,62.8,58.0,55.6,56.8,54.9,53.5,94,90,79,29.89,29.81,6,0,6,0.24
2013-6-25,62.8,58.4,56.1,60.2,56.2,54.4,94,92,87,30.01,29.83,6,0,6,0.31
2013-6-26,70.9,62.6,57.7,63.5,58.9,55.9,95,88,74,30.21,30.00,4,0,4,0.04
2013-6-27,71.8,64.2,60.6,64.9,60.2,57.1,91,87,76,30.37,30.16,4,1,4,0.02
2013-6-28,78.6,64.8,57.9,67.4,60.1,55.4,93,85,67,30.35,30.28,3,0,3,0.00
2013-6-29,78.3,64.9,58.3,67.0,59.7,55.4,92,84,67,30.31,30.18,12,0,12,0.00
2013-6-30,77.9,65.0,58.6,65.3,59.7,55.4,92,84,63,30.18,30.13,2,0,2,0.00
2013-7-1,66.7,63.2,60.6,62.7,59.6,57.4,92,88,84,30.27,30.14,2,0,2,0.00
2013-7-2,60.6,60.3,60.1,57.6,57.5,57.2,90,90,89,30.27,30.23,1,0,1,0.00
2013-7-3,59.2,58.0,57.0,53.4,52.6,51.5,83,82,81,30.32,30.30,1,0,1,0.00
2013-7-4,72.1,60.0,53.8,59.4,53.4,49.8,87,79,63,30.34,30.26,4,0,4,0.00
2013-7-5,73.0,61.2,56.3,60.1,54.2,51.2,85,78,63,30.27,30.16,2,0,2,0.00
2013-7-6,71.6,60.7,54.3,58.2,53.3,49.2,85,77,62,30.17,30.09,15,0,15,0.00
2013-7-7,75.9,60.7,55.4,60.3,53.8,51.1,86,78,58,30.20,30.10,3,0,3,0.00
2013-7-8,73.6,60.4,55.6,58.9,53.2,50.1,86,77,60,30.27,30.19,5,0,5,0.00
2013-7-9,60.4,56.4,54.0,54.9,52.5,50.6,91,87,82,30.29,30.23,3,0,3,0.00
2013-7-10,68.2,56.4,51.6,54.7,50.4,47.5,90,81,62,30.26,30.19,10,0,10,0.00
2013-7-11,69.3,57.0,51.6,55.6,49.8,46.6,85,77,60,30.24,30.19,3,0,3,0.00
2013-7-12,69.4,56.0,48.0,56.3,49.5,43.7,88,79,63,30.29,30.17,3,0,3,0.00
2013-7-13,65.5,54.9,47.3,54.6,49.1,43.3,88,81,68,30.31,30.24,4,0,4,0.00
2013-7-14,66.4,55.0,50.5,55.8,50.1,47.4,90,84,68,30.27,30.19,3,0,3,0.00
2013-7-15,63.0,56.0,52.3,55.6,50.9,48.5,89,83,74,30.22,30.01,2,0,2,0.00
2013-7-16,65.3,56.1,49.1,58.3,51.7,45.4,89,85,77,30.20,29.93,4,0,4,0.00
2013-7-17,64.6,58.7,53.4,56.7,54.0,49.0,91,85,74,30.37,30.19,3,0,3,0.00
2013-7-18,70.0,56.5,48.6,57.3,50.7,45.3,90,81,64,30.37,30.31,3,0,3,0.00
2013-7-19,65.1,53.8,52.9,55.6,50.0,49.1,88,87,71,30.31,30.27,2,0,2,0.00
2013-7-20,83.5,56.9,52.0,61.7,51.4,49.4,91,83,44,30.21,30.14,7,0,7,1.94
2013-7-21,91.8,59.3,49.3,63.4,52.2,47.6,95,80,35,30.15,30.09,6,0,6,0.04
2013-7-22,67.6,57.3,51.8,57.6,52.0,48.8,90,83,69,30.24,30.11,2,0,2,0.00
2013-7-23,57.2,52.7,50.2,52.8,49.7,47.6,93,90,85,30.19,30.14,0,0,0,0.00
2013-7-24,58.8,52.9,49.3,54.8,49.7,47.2,94,89,82,30.21,30.15,0,0,0,0.00
2013-7-25,58.1,53.2,49.5,53.2,50.1,47.2,94,90,83,30.26,30.17,3,0,3,0.00
2013-7-26,66.9,55.4,49.6,56.2,50.7,47.2,92,85,68,30.38,30.24,11,1,11,0.00
2013-7-27,68.5,58.0,51.1,57.7,52.3,47.7,90,82,67,30.39,30.23,10,3,10,0.00
2013-7-28,62.8,56.7,53.2,56.1,52.1,49.0,90,85,77,30.23,30.13,7,1,7,0.24
2013-7-29,64.2,57.1,51.6,57.7,53.0,48.4,91,86,78,30.23,30.12,6,1,6,0.00
2013-7-30,63.7,58.6,55.2,56.8,54.2,51.2,90,85,78,30.32,30.22,4,0,4,0.00
2013-7-31,62.6,58.4,56.1,57.5,54.7,53.8,92,88,83,30.31,30.24,6,1,6,0.00
2013-8-1,64.6,58.7,55.9,60.2,56.0,53.8,94,91,84,30.30,30.22,5,0,5,0.08
2013-8-2,64.9,59.5,56.3,60.0,56.4,53.3,95,90,83,30.32,30.26,4,0,4,0.04
2013-8-3,68.9,58.6,50.9,61.3,54.5,48.3,93,87,74,30.27,30.18,10,2,10,0.00
2013-8-4,58.3,55.1,52.5,54.9,52.6,50.5,93,91,88,30.19,30.13,6,2,6,0.00
2013-8-5,60.6,54.3,51.3,55.4,51.4,49.1,94,90,81,30.19,30.12,9,2,9,0.00
2013-8-6,59.7,53.3,49.6,54.7,50.4,47.6,93,90,82,30.16,30.09,8,2,8,0.00
2013-8-7,59.9,53.7,50.9,56.7,51.3,48.9,94,92,84,30.24,30.13,5,0,5,0.00
2013-8-8,62.8,56.1,52.9,59.3,53.7,51.2,95,92,86,30.21,30.10,10,1,10,0.02
2013-8-9,63.1,56.1,52.3,58.2,53.3,50.3,94,90,81,30.13,30.06,7,2,7,0.00
2013-8-10,63.0,57.6,54.0,59.6,55.0,52.1,94,91,85,30.23,30.10,6,0,6,0.00
2013-8-11,63.7,58.4,55.2,59.6,55.6,53.1,94,90,84,30.24,30.19,3,0,3,0.00
2013-8-12,71.4,60.1,53.4,62.5,56.0,50.1,94,87,73,30.29,30.19,6,0,6,0.00
2013-8-13,70.5,57.9,48.2,59.1,52.6,45.8,93,83,67,30.25,30.13,6,1,6,0.00
2013-8-14,71.1,60.7,51.6,61.0,55.8,48.8,94,85,62,30.15,30.09,4,0,4,0.15
2013-8-15,64.6,60.9,58.8,63.1,59.1,57.3,95,94,92,30.18,30.09,1,0,1,0.10
2013-8-16,68.5,60.5,55.6,62.0,57.4,52.7,95,90,79,30.30,30.13,2,0,2,0.02
2013-8-17,70.3,60.8,54.9,64.5,58.0,52.6,95,91,80,30.30,30.20,2,0,2,0.02
2013-8-18,75.6,66.6,60.6,65.9,60.9,57.7,90,82,72,30.34,30.25,8,3,8,0.00
2013-8-19,71.2,61.5,53.4,63.6,57.1,50.8,93,86,75,30.34,30.23,11,2,11,0.00
2013-8-20,68.7,58.4,50.5,59.5,53.1,47.5,92,83,72,30.29,30.16,12,4,12,0.00
2013-8-21,67.1,56.0,47.1,57.4,50.9,44.4,92,83,71,30.16,30.04,9,1,9,0.00
2013-8-22,62.1,55.6,49.1,57.6,52.5,46.3,93,89,84,30.10,30.02,2,0,2,0.00
2013-8-23,68.2,60.8,55.9,61.9,57.4,53.9,94,89,78,30.13,30.06,2,0,2,0.00
2013-8-24,69.4,61.0,56.1,61.1,57.0,53.5,93,87,73,30.12,30.06,5,1,5,0.00
2013-8-25,62.8,56.6,51.4,58.2,53.4,49.1,93,89,82,30.09,30.04,2,0,2,0.00
2013-8-26,67.3,58.4,52.3,58.5,54.5,50.0,95,88,66,30.11,30.04,8,1,8,0.47
2013-8-27,68.9,62.9,59.7,64.7,60.7,58.5,96,92,85,30.10,30.01,2,0,2,0.53
2013-8-28,69.6,64.3,61.2,64.5,61.4,59.4,95,90,80,30.10,29.99,2,0,2,0.02
2013-8-29,65.7,62.7,61.5,64.1,61.2,59.7,96,95,93,30.25,30.01,6,0,6,0.43
2013-8-30,72.0,63.2,56.5,66.0,60.3,54.2,96,91,79,30.33,30.21,6,1,6,0.14
2013-8-31,68.7,58.2,51.8,62.2,55.3,49.8,94,90,79,30.21,30.06,3,0,3,0.00
2013-9-1,74.8,63.1,56.1,61.3,57.9,54.1,94,84,60,30.13,30.04,3,0,3,0.02
2013-9-2,72.5,64.1,56.3,63.8,59.5,52.3,94,85,71,30.12,30.04,5,0,5,0.02
2013-9-3,74.3,62.5,55.2,63.6,57.4,51.7,91,84,68,30.20,30.09,5,0,5,0.00
2013-9-4,72.5,61.9,56.8,64.9,58.4,54.0,93,88,75,30.25,30.16,3,0,3,0.00
2013-9-5,62.6,60.2,56.8,60.7,58.4,54.2,95,93,91,30.25,30.17,3,0,3,0.65
2013-9-6,67.6,62.3,58.8,64.2,60.3,57.1,96,93,86,30.34,30.24,1,0,1,0.11
2013-9-7,74.5,61.1,54.3,66.5,58.1,52.6,95,90,74,30.27,30.15,6,1,6,0.00
2013-9-8,67.6,61.6,59.0,63.0,59.1,57.0,94,91,84,30.25,30.17,7,2,7,0.00
2013-9-9,66.4,60.4,57.0,61.7,57.6,55.0,94,91,83,30.20,30.08,12,2,12,0.00
2013-9-10,67.8,58.4,53.8,61.0,55.2,51.8,94,89,77,30.09,29.91,6,1,6,0.00
2013-9-11,65.1,59.6,56.3,60.3,56.8,54.2,94,90,83,30.17,29.93,2,0,2,0.00
2013-9-12,72.3,60.7,58.3,64.2,57.7,55.9,94,90,73,30.17,30.14,2,0,2,0.02
2013-9-13,65.5,60.9,58.1,61.5,58.2,55.8,94,91,85,30.16,30.02,5,1,5,0.00
2013-9-14,62.8,59.9,58.1,60.2,57.6,56.0,94,92,89,30.02,29.92,4,0,4,0.02
2013-9-15,61.9,59.3,58.1,60.4,57.7,56.4,95,94,93,30.05,29.90,2,0,2,0.14
2013-9-16,66.4,59.9,57.9,63.9,58.3,56.4,96,94,89,30.15,30.05,1,0,2,0.10
2013-9-17,79.5,60.3,55.2,65.9,56.6,52.2,95,88,61,30.19,30.03,4,0,4,0.02
2013-9-18,79.3,58.9,53.4,67.3,55.2,51.0,95,88,64,30.25,30.14,6,0,6,0.00
2013-9-19,81.3,58.6,50.5,62.3,52.7,47.7,92,82,50,30.14,29.94,2,0,2,0.00
2013-9-20,60.1,57.3,53.8,58.4,54.6,50.0,94,91,85,29.94,29.80,8,0,8,0.19
2013-9-21,65.8,58.8,55.0,60.0,56.0,53.6,95,91,79,29.95,29.81,6,0,6,0.00
2013-9-22,60.4,57.4,55.6,59.3,55.7,54.0,96,94,92,30.01,29.81,11,1,11,0.71
2013-9-23,60.6,57.4,54.7,58.9,55.8,53.0,96,95,92,30.15,30.01,3,0,3,0.39
2013-9-24,56.8,53.2,49.1,55.7,51.7,47.4,96,95,94,30.14,30.01,3,0,3,0.98
2013-9-25,73.0,52.9,47.5,61.6,49.5,45.0,96,89,62,30.19,29.99,4,0,4,0.40
2013-9-26,76.1,52.8,44.4,64.3,49.0,42.3,94,87,63,30.32,30.17,1,0,1,0.00
2013-9-27,59.4,53.4,48.6,58.2,51.7,46.4,96,94,91,30.31,30.04,5,0,5,0.70
2013-9-28,59.5,57.4,53.1,58.5,56.3,51.9,97,96,96,30.04,29.67,18,2,18,2.14
2013-9-29,59.0,55.9,52.3,58.1,54.6,51.2,97,95,92,29.83,29.54,11,2,11,1.49
2013-9-30,59.0,55.0,51.6,55.6,52.3,49.1,96,91,86,30.13,29.79,6,0,6,0.16
2013-10-1,65.3,52.3,46.9,59.8,49.7,44.8,95,91,79,30.33,30.09,2,0,2,0.63
2013-10-2,60.1,49.1,45.1,56.9,47.1,43.3,95,93,85,30.31,30.19,2,0,2,0.37
2013-10-3,65.5,49.9,42.1,57.7,46.7,40.5,95,89,73,30.53,30.31,4,0,4,0.02
2013-10-4,67.5,51.0,42.6,57.1,47.1,40.6,94,87,68,30.53,30.43,6,0,6,0.00
2013-10-5,72.1,52.5,43.5,57.7,47.9,41.4,93,85,60,30.44,30.21,3,0,3,0.00
2013-10-6,68.7,59.0,52.0,57.3,50.9,44.9,89,75,43,30.22,30.11,6,1,6,0.08
2013-10-7,60.4,55.0,51.8,56.9,52.3,49.3,94,91,83,30.31,30.14,4,0,4,0.23
2013-10-8,54.7,51.7,46.0,52.1,49.2,43.3,94,91,84,30.31,30.14,8,1,8,0.18
2013-10-9,59.2,48.9,39.6,51.6,45.1,37.4,93,87,75,30.18,30.09,7,1,7,0.00
2013-10-10,58.1,50.7,46.6,53.4,47.8,44.1,92,90,84,30.23,30.06,6,0,6,0.02
2013-10-11,58.3,50.2,46.0,53.0,47.0,43.5,93,89,78,30.29,30.22,3,0,3,0.00
2013-10-12,62.2,50.7,45.7,58.0,47.8,43.0,94,90,83,30.32,30.20,4,0,4,0.14
2013-10-13,59.7,49.7,42.4,53.4,46.3,40.3,93,88,78,30.42,30.30,7,1,7,0.00
2013-10-14,57.9,48.5,39.9,51.3,44.7,37.8,93,87,76,30.44,30.38,7,0,7,0.00
2013-10-15,60.1,49.0,39.9,51.6,44.5,37.5,93,85,70,30.40,30.23,6,0,6,0.00
2013-10-16,55.6,47.8,40.6,51.7,44.8,38.2,92,89,86,30.27,30.20,4,0,4,0.00
2013-10-17,55.2,48.1,42.4,52.3,45.7,40.3,94,91,89,30.31,30.23,4,0,4,0.00
2013-10-18,58.5,49.5,42.1,53.9,46.1,40.2,94,88,75,30.23,30.18,4,0,4,0.00
2013-10-19,55.6,48.9,41.2,52.1,46.2,39.0,93,90,85,30.26,30.18,4,0,4,0.00
2013-10-20,52.2,49.9,47.3,50.1,47.9,45.4,94,93,92,30.26,30.17,4,1,4,0.00
2013-10-21,50.7,47.6,43.0,48.7,45.9,41.1,95,94,93,30.19,30.05,3,0,3,0.00
2013-10-22,53.2,48.7,43.2,51.5,47.0,41.3,95,94,93,30.13,30.08,2,0,2,0.00
2013-10-23,53.6,50.8,48.7,51.8,49.0,47.1,95,94,92,30.14,30.10,4,0,4,0.00
2013-10-24,54.0,51.7,49.8,51.5,49.6,48.1,95,93,90,30.23,30.12,5,1,5,0.00
2013-10-25,55.6,52.7,50.0,52.1,50.0,47.9,93,90,88,30.38,30.22,4,0,4,0.00
2013-10-26,54.1,50.8,46.6,50.3,48.1,44.1,93,90,85,30.39,30.28,6,1,6,0.00
2013-10-27,54.3,50.1,43.5,51.3,47.5,41.3,95,91,88,30.30,29.95,9,1,9,0.04
2013-10-28,57.4,45.9,39.0,47.2,40.7,36.5,94,83,55,30.00,29.88,9,0,9,0.00
2013-10-29,51.4,42.4,36.0,43.9,37.6,32.7,89,83,69,30.13,29.99,1,0,1,0.00
2013-10-30,53.4,45.6,37.9,47.9,41.2,34.6,88,85,77,30.28,30.12,0,0,0,0.00
2013-10-31,54.0,51.4,48.2,51.9,47.6,42.6,94,87,71,30.39,30.26,2,0,2,0.02
2013-11-1,56.1,51.2,45.0,53.6,49.2,43.3,95,93,89,30.38,30.09,3,0,3,0.00
2013-11-2,53.4,50.6,46.0,51.7,48.3,43.9,95,92,84,30.28,29.98,6,0,6,0.04
2013-11-3,49.3,45.7,43.0,47.6,43.9,41.1,94,93,92,30.30,30.22,7,0,7,0.17
2013-11-4,50.7,47.7,44.4,49.6,46.4,42.8,96,95,94,30.27,30.19,2,0,2,0.55
2013-11-5,53.8,52.2,50.5,52.6,51.1,49.4,96,96,96,30.36,30.18,6,0,6,0.12
2013-11-6,56.7,54.5,52.7,55.6,53.5,51.5,97,96,96,30.39,30.20,2,0,2,0.00
2013-11-7,55.0,51.3,48.7,54.2,50.2,47.4,97,96,95,30.27,30.05,7,0,7,0.00
2013-11-8,52.0,49.0,45.1,50.8,47.8,43.8,96,96,95,30.31,30.20,0,0,0,0.00
2013-11-9,50.2,46.6,42.4,48.2,45.1,41.1,96,95,93,30.21,30.12,0,0,0,0.00
2013-11-10,58.5,51.6,46.9,53.3,48.3,44.2,94,89,81,30.19,30.11,1,0,1,0.00
2013-11-11,61.3,54.8,47.7,53.6,48.9,45.8,94,81,64,30.19,30.07,4,0,4,0.00
2013-11-12,56.5,53.6,51.1,54.1,51.6,48.7,95,93,77,30.56,30.18,4,0,4,0.00
2013-11-13,53.8,50.1,46.0,51.9,48.3,44.1,95,94,92,30.61,30.43,3,0,3,0.00
2013-11-14,50.2,46.2,43.2,48.7,44.7,41.3,95,94,93,30.43,30.24,2,0,2,0.00
2013-11-15,50.2,45.5,41.2,49.0,44.1,39.6,96,95,94,30.26,29.76,4,0,4,0.00
2013-11-16,50.2,47.9,46.0,49.0,46.4,44.3,96,95,92,30.00,29.75,6,0,6,0.00
2013-11-17,52.3,49.5,47.5,50.6,48.1,46.1,96,95,93,30.12,30.00,6,0,6,0.00
2013-11-18,52.2,50.8,48.9,51.0,49.5,47.2,96,96,94,30.11,29.83,12,1,12,0.00
2013-11-19,52.5,48.7,39.9,51.2,46.0,35.1,96,90,81,30.16,29.82,10,2,10,0.00
2013-11-20,47.5,39.3,32.7,37.4,33.4,29.3,90,80,63,30.49,30.16,8,1,8,0.00
2013-11-21,46.9,34.9,29.3,35.6,29.1,26.1,90,80,57,30.65,30.49,4,0,4,0.00
2013-11-22,49.6,38.3,30.9,36.7,30.1,25.2,83,72,60,30.64,30.40,0,0,0,0.00
2013-11-23,54.5,42.9,34.3,40.8,33.2,27.8,78,69,58,30.42,30.19,0,0,0,0.00
2013-11-24,55.2,45.3,39.4,40.7,34.0,28.5,76,65,53,30.35,30.20,1,0,1,0.00
2013-11-25,55.0,45.8,41.4,44.1,37.3,32.7,83,72,60,30.43,30.34,1,0,1,0.00
2013-11-26,56.1,49.7,42.1,44.0,40.0,34.1,76,69,60,30.35,30.11,5,0,5,0.00
2013-11-27,57.4,48.9,43.9,45.6,39.5,35.4,76,70,61,30.11,30.01,0,0,1,0.00
2013-11-28,51.4,43.8,39.4,43.6,37.6,33.9,87,79,71,30.32,30.08,3,0,3,0.00
2013-11-29,50.5,44.0,37.2,46.7,40.7,33.9,91,88,86,30.49,30.32,4,0,4,0.00
2013-11-30,52.9,47.7,43.2,49.0,44.8,40.6,94,90,84,30.52,30.38,3,0,3,0.00
2013-12-1,53.2,52.3,50.2,52.1,51.0,48.5,96,96,94,30.38,30.13,13,1,13,0.00
2013-12-2,51.1,44.5,37.6,49.9,41.8,35.1,96,90,80,30.21,30.12,11,1,11,0.00
2013-12-3,41.5,36.7,30.4,39.6,34.0,27.5,93,90,84,30.40,30.18,2,0,2,0.00
2013-12-4,37.9,31.3,28.0,32.5,27.3,24.0,91,85,76,30.44,30.38,2,0,2,0.00
2013-12-5,36.3,31.0,25.9,27.0,23.1,19.1,81,73,57,30.41,30.20,6,0,6,0.00
2013-12-6,33.3,30.9,25.3,29.0,25.5,19.1,89,80,57,30.19,30.02,10,2,10,0.00
2013-12-7,30.7,25.4,20.8,22.7,18.9,15.0,86,77,66,30.55,30.19,2,0,2,0.00
2013-12-8,32.4,26.7,19.6,23.6,18.9,12.8,76,72,67,30.69,30.53,1,0,1,0.00
2013-12-9,40.6,33.2,26.8,31.0,25.7,19.5,80,74,66,30.71,30.64,2,0,2,0.00
2013-12-10,45.1,37.5,33.1,38.7,32.4,28.3,86,82,77,30.66,30.49,2,0,2,0.00
2013-12-11,47.8,37.2,31.6,39.4,32.2,28.1,88,82,72,30.50,30.27,2,0,2,0.00
2013-12-12,47.3,40.4,35.2,41.8,35.7,30.4,89,83,77,30.30,30.22,4,0,4,0.00
2013-12-13,49.8,47.3,42.3,48.2,45.9,40.2,95,95,93,30.57,30.32,3,0,3,0.00
2013-12-14,47.5,42.8,38.5,45.9,41.0,36.6,95,93,93,30.59,30.47,2,0,2,0.00
2013-12-15,49.8,46.8,42.6,48.4,45.3,40.7,95,94,93,30.62,30.53,0,0,0,0.00
2013-12-16,48.0,42.6,39.0,46.7,41.0,37.4,95,94,93,30.59,30.34,4,0,4,0.00
2013-12-17,45.1,40.7,36.3,43.3,38.8,34.4,94,93,92,30.37,30.30,3,0,3,0.00
2013-12-18,48.0,43.4,37.8,46.2,40.9,35.1,94,91,84,30.32,30.19,10,1,10,0.00
2013-12-19,41.9,35.6,31.6,38.2,33.1,29.4,93,91,86,30.46,30.27,2,0,2,0.00
2013-12-20,47.7,43.0,35.8,46.3,40.9,32.9,95,92,87,30.36,30.06,5,0,5,0.00
2013-12-21,49.3,47.6,46.2,47.9,46.3,44.9,96,95,95,30.40,30.13,1,0,1,0.00
2013-12-22,49.8,47.5,46.6,48.7,46.2,45.2,96,95,95,30.51,30.39,0,0,0,0.00
2013-12-23,49.8,46.6,39.2,48.7,45.3,37.8,96,95,94,30.69,30.48,4,0,4,0.18
2013-12-24,45.0,39.2,35.2,43.6,37.6,33.5,95,94,93,30.73,30.58,1,0,1,0.00
2013-12-25,45.5,37.9,33.8,43.3,35.9,31.9,94,93,90,30.60,30.48,3,0,3,0.00
2013-12-26,47.1,38.9,34.3,43.9,36.6,32.2,92,91,88,30.49,30.30,0,0,0,0.00
2013-12-27,48.2,42.4,36.5,45.8,39.8,33.8,93,90,87,30.52,30.27,6,0,6,0.00
2013-12-28,46.6,40.1,34.7,43.3,37.5,32.3,93,91,86,30.65,30.52,8,0,8,0.00
2013-12-29,46.0,37.8,33.4,43.3,35.4,31.0,93,91,88,30.58,30.36,3,0,3,0.00
2013-12-30,49.3,42.4,37.9,45.2,39.4,35.5,92,89,84,30.38,30.28,2,0,2,0.00
2013-12-31,49.3,43.5,40.8,47.0,41.2,38.4,93,91,90,30.46,30.36,1,0,1,0.00
2014-1-1,50.2,42.9,38.1,47.4,40.8,36.2,94,92,90,30.44,30.30,2,0,2,0.00
2014-1-2,52.2,45.4,40.8,47.0,42.2,38.1,93,89,81,30.32,30.17,2,0,2,0.00